sat.trackr.live / text

‹ back to catalog

HULIANWANG DIGUI-163

NORAD 68137 · 2026-047J

PAYLOAD ACTIVE UNKNOWN

§ Identity

Operator
Country
PRC
Launch date
2026-03-12
Launch site
WSC
Launch vehicle
Mass (kg)
RCS (m²)

External: N2YO · Heavens-Above · Gunter

§ Orbital elements

Epoch: 2026-05-25T05:35:12.135840Z

Period
108.33 min
Inclination
50.0044°
Eccentricity
0.0000170
Mean motion
13.29330653 rev/d
Perigee alt
1,149.2 km
Apogee alt
1,149.4 km
Semi-major
7,527.4 km
B*
7.4908e-5
RAAN
138.1557°
Arg perigee
9.2443°
Mean anomaly
350.8433°
Rev number
1,002

§ Raw data

HULIANWANG DIGUI-1631 68137U 26047J   26145.23277935 -.00000089  00000+0  74908-4 0  99992 68137  50.0044 138.1557 0000170   9.2443 350.8433 13.29330653 10024

JSON: /api/v1/satellites/68137 · /tle

For live sub-satellite position, see the globe view (requires WebGL).

§ Visibility from observer

Set your observer location to see the next 7 days of passes ≥ 10°. The values pass through the URL so the page stays shareable.

No JS? Fill the form by hand. The geolocation button needs JavaScript.